| time (UTC) | temp F | wind direction | speed MPH | gust MPH | rain 1hr in | rain 24hr in | rain mn in | humidity % | barometer mb |
| 20260504231445 | 69 | 81 | 0.0 | 0.0 | 0.00 | 0.00 | 0.00 | 45 | 1008.8 |
| 20260504230941 | 69 | 44 | 0.0 | 1.0 | 0.00 | 0.00 | 0.00 | 42 | 1008.6 |
| 20260504230438 | 69 | 87 | 0.0 | 0.0 | 0.00 | 0.00 | 0.00 | 46 | 1008.7 |
| 20260504225937 | 69 | 118 | 0.0 | 0.0 | 0.00 | 0.00 | 0.00 | 43 | 1008.8 |
| 20260504225433 | 70 | 115 | 1.0 | 1.0 | 0.00 | 0.00 | 0.00 | 41 | 1008.7 |
| 20260504224931 | 70 | 140 | 3.0 | 3.0 | 0.00 | 0.00 | 0.00 | 43 | 1008.6 |
| 20260504224427 | 70 | 72 | 1.0 | 2.0 | 0.00 | 0.00 | 0.00 | 43 | 1008.7 |
| 20260504223924 | 70 | 90 | 0.0 | 1.0 | 0.00 | 0.00 | 0.00 | 45 | 1008.7 |
| 20260504223420 | 70 | 112 | 0.0 | 0.0 | 0.00 | 0.00 | 0.00 | 40 | 1008.6 |
| 20260504222916 | 71 | 127 | 1.0 | 1.0 | 0.00 | 0.00 | 0.00 | 41 | 1008.8 |
| 20260504222414 | 71 | 132 | 1.0 | 1.0 | 0.00 | 0.00 | 0.00 | 40 | 1008.5 |
| 20260504221911 | 71 | 118 | 1.0 | 2.0 | 0.00 | 0.00 | 0.00 | 40 | 1008.6 |
| 20260504221408 | 71 | 108 | 0.0 | 0.0 | 0.00 | 0.00 | 0.00 | 41 | 1008.7 |
| 20260504220905 | 71 | 91 | 0.0 | 0.0 | 0.00 | 0.00 | 0.00 | 40 | 1008.9 |
| 20260504220402 | 71 | 134 | 1.0 | 1.0 | 0.00 | 0.00 | 0.00 | 38 | 1008.8 |
| 20260504215859 | 72 | 121 | 1.0 | 1.0 | 0.00 | 0.00 | 0.00 | 39 | 1008.9 |
| 20260504215355 | 72 | 65 | 0.0 | 0.0 | 0.00 | 0.00 | 0.00 | 40 | 1009.1 |
| 20260504214851 | 72 | 144 | 1.0 | 3.0 | 0.00 | 0.00 | 0.00 | 39 | 1008.9 |
| 20260504214348 | 72 | 117 | 1.0 | 1.0 | 0.00 | 0.00 | 0.00 | 37 | 1008.9 |
| 20260504213845 | 72 | 47 | 1.0 | 2.0 | 0.00 | 0.00 | 0.00 | 39 | 1008.9 |
| 20260504213341 | 73 | 151 | 4.0 | 5.0 | 0.00 | 0.00 | 0.00 | 37 | 1008.9 |
| 20260504212838 | 73 | 129 | 1.0 | 1.0 | 0.00 | 0.00 | 0.00 | 37 | 1008.9 |
| 20260504212334 | 73 | 93 | 0.0 | 1.0 | 0.00 | 0.00 | 0.00 | 37 | 1009.1 |
| 20260504211832 | 73 | 88 | 0.0 | 1.0 | 0.00 | 0.00 | 0.00 | 37 | 1009.0 |
| 20260504211328 | 73 | 153 | 2.0 | 2.0 | 0.00 | 0.00 | 0.00 | 36 | 1008.8 |
| 20260504210826 | 73 | 132 | 1.0 | 2.0 | 0.00 | 0.00 | 0.00 | 36 | 1008.8 |
| 20260504210323 | 72 | 61 | 0.0 | 1.0 | 0.00 | 0.00 | 0.00 | 37 | 1008.9 |
| 20260504205820 | 72 | 69 | 0.0 | 0.0 | 0.00 | 0.00 | 0.00 | 36 | 1009.1 |
| 20260504205317 | 73 | 123 | 0.0 | 0.0 | 0.00 | 0.00 | 0.00 | 37 | 1009.0 |
| 20260504204815 | 73 | 128 | 2.0 | 2.0 | 0.00 | 0.00 | 0.00 | 35 | 1008.9 |
| 20260504204314 | 73 | 160 | 2.0 | 2.0 | 0.00 | 0.00 | 0.00 | 37 | 1009.1 |
| 20260504203813 | 72 | 81 | 1.0 | 1.0 | 0.00 | 0.00 | 0.00 | 36 | 1009.0 |
| 20260504203309 | 72 | 143 | 2.0 | 3.0 | 0.00 | 0.00 | 0.00 | 36 | 1009.2 |
| 20260504202804 | 73 | 67 | 0.0 | 0.0 | 0.00 | 0.00 | 0.00 | 38 | 1009.1 |
| 20260504202304 | 72 | 147 | 2.0 | 2.0 | 0.00 | 0.00 | 0.00 | 37 | 1009.3 |
| 20260504201759 | 72 | 95 | 0.0 | 1.0 | 0.00 | 0.00 | 0.00 | 39 | 1009.3 |
| 20260504201256 | 72 | 160 | 2.0 | 3.0 | 0.00 | 0.00 | 0.00 | 38 | 1009.2 |
| 20260504200754 | 72 | 64 | 0.0 | 1.0 | 0.00 | 0.00 | 0.00 | 40 | 1009.2 |
| 20260504200249 | 72 | 125 | 2.0 | 2.0 | 0.00 | 0.00 | 0.00 | 35 | 1009.5 |
| 20260504195746 | 72 | 111 | 1.0 | 1.0 | 0.00 | 0.00 | 0.00 | 38 | 1009.5 |
| 20260504195242 | 72 | 191 | 3.0 | 3.0 | 0.00 | 0.00 | 0.00 | 37 | 1009.8 |
| 20260504194739 | 71 | 130 | 1.0 | 1.0 | 0.00 | 0.00 | 0.00 | 44 | 1009.7 |
| 20260504194235 | 72 | 109 | 1.0 | 1.0 | 0.00 | 0.00 | 0.00 | 36 | 1009.8 |
| 20260504193732 | 72 | 177 | 2.0 | 3.0 | 0.00 | 0.00 | 0.00 | 38 | 1010.0 |
| 20260504193229 | 72 | 88 | 1.0 | 1.0 | 0.00 | 0.00 | 0.00 | 40 | 1009.7 |
| 20260504192727 | 73 | 94 | 1.0 | 2.0 | 0.00 | 0.00 | 0.00 | 37 | 1010.2 |
| 20260504192225 | 73 | 118 | 1.0 | 2.0 | 0.00 | 0.00 | 0.00 | 37 | 1010.2 |
| 20260504191724 | 72 | 59 | 0.0 | 1.0 | 0.00 | 0.00 | 0.00 | 38 | 1009.9 |
| 20260504191220 | 72 | 35 | 2.0 | 2.0 | 0.00 | 0.00 | 0.00 | 36 | 1010.0 |
| 20260504190715 | 71 | 107 | 2.0 | 3.0 | 0.00 | 0.00 | 0.00 | 37 | 1010.0 |
| 20260504190212 | 71 | 307 | 3.0 | 5.0 | 0.00 | 0.00 | 0.00 | 37 | 1010.3 |
| 20260504185709 | 72 | 326 | 3.0 | 8.0 | 0.00 | 0.00 | 0.00 | 38 | 1010.5 |
| 20260504185206 | 71 | 56 | 0.0 | 0.0 | 0.00 | 0.00 | 0.00 | 41 | 1010.4 |
| 20260504184702 | 72 | 118 | 1.0 | 2.0 | 0.00 | 0.00 | 0.00 | 38 | 1010.5 |
| 20260504184157 | 71 | 81 | 0.0 | 1.0 | 0.00 | 0.00 | 0.00 | 43 | 1010.2 |
| 20260504183654 | 70 | 145 | 1.0 | 1.0 | 0.00 | 0.00 | 0.00 | 37 | 1010.4 |
| 20260504183151 | 71 | 117 | 0.0 | 1.0 | 0.00 | 0.00 | 0.00 | 38 | 1010.3 |
| 20260504182649 | 71 | 164 | 5.0 | 5.0 | 0.00 | 0.00 | 0.00 | 37 | 1010.6 |
| 20260504182146 | 70 | 96 | 0.0 | 1.0 | 0.00 | 0.00 | 0.00 | 38 | 1010.9 |
| 20260504181643 | 69 | 131 | 3.0 | 3.0 | 0.00 | 0.00 | 0.00 | 38 | 1010.8 |
| 20260504181141 | 70 | 164 | 5.0 | 5.0 | 0.00 | 0.00 | 0.00 | 38 | 1011.1 |
| 20260504180640 | 70 | 177 | 4.0 | 5.0 | 0.00 | 0.00 | 0.00 | 40 | 1010.9 |
| 20260504180138 | 69 | 89 | 1.0 | 1.0 | 0.00 | 0.00 | 0.00 | 38 | 1011.1 |
| 20260504175635 | 69 | 137 | 3.0 | 3.0 | 0.00 | 0.00 | 0.00 | 39 | 1011.2 |
| 20260504175131 | 69 | 179 | 3.0 | 5.0 | 0.00 | 0.00 | 0.00 | 38 | 1011.4 |
| 20260504174630 | 70 | 130 | 1.0 | 1.0 | 0.00 | 0.00 | 0.00 | 39 | 1011.3 |
| 20260504174126 | 70 | 153 | 2.0 | 3.0 | 0.00 | 0.00 | 0.00 | 39 | 1011.5 |
| 20260504173623 | 70 | 102 | 0.0 | 1.0 | 0.00 | 0.00 | 0.00 | 38 | 1011.2 |
| 20260504173121 | 69 | 76 | 0.0 | 1.0 | 0.00 | 0.00 | 0.00 | 39 | 1011.3 |
| 20260504172617 | 69 | 70 | 0.0 | 1.0 | 0.00 | 0.00 | 0.00 | 39 | 1011.5 |
| 20260504172114 | 69 | 92 | 0.0 | 1.0 | 0.00 | 0.00 | 0.00 | 39 | 1011.4 |
| 20260504171610 | 69 | 298 | 2.0 | 2.0 | 0.00 | 0.00 | 0.00 | 38 | 1011.7 |
| 20260504171108 | 69 | 117 | 1.0 | 2.0 | 0.00 | 0.00 | 0.00 | 39 | 1011.7 |
| 20260504170603 | 68 | 127 | 1.0 | 1.0 | 0.00 | 0.00 | 0.00 | 39 | 1011.6 |
| 20260504150947 | 64 | 127 | 1.0 | 1.0 | 0.00 | 0.00 | 0.00 | 44 | 1013.0 |
| 20260504150444 | 65 | 87 | 0.0 | 1.0 | 0.00 | 0.00 | 0.00 | 45 | 1013.0 |
| 20260504140910 | 61 | 149 | 1.0 | 2.0 | 0.00 | 0.00 | 0.00 | 57 | 1013.3 |
| 20260504140406 | 61 | 111 | 1.0 | 1.0 | 0.00 | 0.00 | 0.00 | 54 | 1013.1 |
| 20260504130331 | 57 | 153 | 1.0 | 1.0 | 0.00 | 0.00 | 0.00 | 68 | 1013.7 |
| 20260504120254 | 47 | 110 | 0.0 | 0.0 | 0.00 | 0.00 | 0.00 | 98 | 1013.9 |
| 20260504110218 | 37 | 109 | 0.0 | 0.0 | 0.00 | 0.00 | 0.00 | 99 | 1014.0 |
| 20260504100142 | 34 | 109 | 0.0 | 0.0 | 0.00 | 0.00 | 0.00 | 98 | 1014.4 |
| 20260504090105 | 35 | 108 | 0.0 | 0.0 | 0.00 | 0.00 | 0.00 | 98 | 1014.3 |
| 20260504081535 | 35 | 109 | 0.0 | 0.0 | 0.00 | 0.00 | 0.00 | 97 | 1014.3 |
| 20260504081031 | 35 | 109 | 0.0 | 0.0 | 0.00 | 0.00 | 0.00 | 97 | 1014.2 |
| 20260504080527 | 35 | 109 | 0.0 | 0.0 | 0.00 | 0.00 | 0.00 | 97 | 1014.2 |
| 20260504050340 | 37 | 109 | 0.0 | 0.0 | 0.00 | 0.00 | 0.00 | 94 | 1014.1 |
| 20260504045837 | 37 | 109 | 0.0 | 0.0 | 0.00 | 0.00 | 0.00 | 93 | 1014.3 |
| 20260504045332 | 38 | 109 | 0.0 | 0.0 | 0.00 | 0.00 | 0.00 | 93 | 1014.2 |
| 20260504044829 | 38 | 109 | 0.0 | 0.0 | 0.00 | 0.00 | 0.00 | 93 | 1014.3 |
| 20260504044326 | 38 | 109 | 0.0 | 0.0 | 0.00 | 0.00 | 0.00 | 93 | 1014.3 |
| 20260504043824 | 38 | 109 | 0.0 | 0.0 | 0.00 | 0.00 | 0.00 | 93 | 1014.3 |
| 20260504043321 | 38 | 109 | 0.0 | 0.0 | 0.00 | 0.00 | 0.00 | 93 | 1014.3 |
| 20260504042818 | 38 | 109 | 0.0 | 0.0 | 0.00 | 0.00 | 0.00 | 92 | 1014.3 |
| 20260504042314 | 38 | 109 | 0.0 | 0.0 | 0.00 | 0.00 | 0.00 | 92 | 1014.0 |
| 20260504041811 | 38 | 109 | 0.0 | 0.0 | 0.00 | 0.00 | 0.00 | 92 | 1014.0 |
| 20260504041307 | 39 | 109 | 0.0 | 0.0 | 0.00 | 0.00 | 0.00 | 92 | 1013.8 |
| 20260504040803 | 39 | 109 | 0.0 | 0.0 | 0.00 | 0.00 | 0.00 | 92 | 1013.9 |
| 20260504040301 | 39 | 109 | 0.0 | 0.0 | 0.00 | 0.00 | 0.00 | 92 | 1013.8 |
| 20260504035756 | 39 | 109 | 0.0 | 0.0 | 0.00 | 0.00 | 0.00 | 92 | 1013.8 |
| 20260504035254 | 39 | 109 | 0.0 | 0.0 | 0.00 | 0.00 | 0.00 | 91 | 1013.8 |
| 20260504034751 | 39 | 109 | 0.0 | 0.0 | 0.00 | 0.00 | 0.00 | 91 | 1013.9 |
| 20260504034249 | 39 | 109 | 0.0 | 0.0 | 0.00 | 0.00 | 0.00 | 91 | 1013.8 |
| 20260504033746 | 39 | 109 | 0.0 | 0.0 | 0.00 | 0.00 | 0.00 | 90 | 1013.7 |
| 20260504033243 | 39 | 109 | 0.0 | 0.0 | 0.00 | 0.00 | 0.00 | 90 | 1013.6 |
| 20260504032740 | 40 | 109 | 0.0 | 0.0 | 0.00 | 0.00 | 0.00 | 89 | 1013.6 |
| 20260504032237 | 40 | 109 | 0.0 | 0.0 | 0.00 | 0.00 | 0.00 | 89 | 1013.6 |
| 20260504031734 | 40 | 109 | 0.0 | 0.0 | 0.00 | 0.00 | 0.00 | 88 | 1013.7 |
| 20260504031231 | 40 | 109 | 0.0 | 0.0 | 0.00 | 0.00 | 0.00 | 88 | 1013.6 |
| 20260504030727 | 40 | 109 | 0.0 | 0.0 | 0.00 | 0.00 | 0.00 | 88 | 1013.7 |
| 20260504030225 | 41 | 109 | 0.0 | 0.0 | 0.00 | 0.00 | 0.00 | 87 | 1013.5 |
| 20260504025721 | 41 | 109 | 0.0 | 0.0 | 0.00 | 0.00 | 0.00 | 87 | 1013.6 |
| 20260504025218 | 41 | 109 | 0.0 | 0.0 | 0.00 | 0.00 | 0.00 | 86 | 1013.5 |
| 20260504024715 | 41 | 109 | 0.0 | 0.0 | 0.00 | 0.00 | 0.00 | 85 | 1013.6 |
| 20260504024211 | 41 | 109 | 0.0 | 0.0 | 0.00 | 0.00 | 0.00 | 84 | 1013.5 |
| 20260504023708 | 41 | 109 | 0.0 | 0.0 | 0.00 | 0.00 | 0.00 | 84 | 1013.5 |
| 20260504023204 | 42 | 109 | 0.0 | 0.0 | 0.00 | 0.00 | 0.00 | 84 | 1013.4 |
| 20260504022700 | 42 | 110 | 0.0 | 0.0 | 0.00 | 0.00 | 0.00 | 85 | 1013.5 |
| 20260504022156 | 42 | 109 | 0.0 | 0.0 | 0.00 | 0.00 | 0.00 | 84 | 1013.6 |
| 20260504021654 | 42 | 109 | 0.0 | 0.0 | 0.00 | 0.00 | 0.00 | 84 | 1013.5 |
| 20260504021150 | 42 | 109 | 0.0 | 0.0 | 0.00 | 0.00 | 0.00 | 84 | 1013.6 |
| 20260504020648 | 43 | 110 | 0.0 | 0.0 | 0.00 | 0.00 | 0.00 | 84 | 1013.6 |
| 20260504020143 | 43 | 110 | 0.0 | 0.0 | 0.00 | 0.00 | 0.00 | 82 | 1013.4 |
| 20260504015641 | 43 | 109 | 0.0 | 0.0 | 0.00 | 0.00 | 0.00 | 82 | 1013.5 |
| 20260504015137 | 44 | 109 | 0.0 | 0.0 | 0.00 | 0.00 | 0.00 | 82 | 1013.4 |
| 20260504014632 | 44 | 110 | 0.0 | 0.0 | 0.00 | 0.00 | 0.00 | 81 | 1013.6 |
| 20260504014130 | 44 | 110 | 0.0 | 0.0 | 0.00 | 0.00 | 0.00 | 82 | 1013.5 |
| 20260504013628 | 44 | 110 | 0.0 | 0.0 | 0.00 | 0.00 | 0.00 | 81 | 1013.4 |
| 20260504013124 | 45 | 110 | 0.0 | 0.0 | 0.00 | 0.00 | 0.00 | 81 | 1013.3 |
| 20260504012621 | 45 | 110 | 0.0 | 0.0 | 0.00 | 0.00 | 0.00 | 79 | 1013.2 |
| 20260504012120 | 46 | 110 | 0.0 | 1.0 | 0.00 | 0.00 | 0.00 | 77 | 1013.2 |
| 20260504011616 | 46 | 110 | 0.0 | 0.0 | 0.00 | 0.00 | 0.00 | 75 | 1013.3 |
| 20260504011112 | 46 | 110 | 0.0 | 0.0 | 0.00 | 0.00 | 0.00 | 75 | 1013.1 |
| 20260504010608 | 47 | 110 | 0.0 | 0.0 | 0.00 | 0.00 | 0.00 | 76 | 1012.9 |
| 20260504010104 | 47 | 110 | 0.0 | 0.0 | 0.00 | 0.00 | 0.00 | 74 | 1012.9 |
| 20260504005601 | 48 | 110 | 0.0 | 0.0 | 0.00 | 0.00 | 0.00 | 73 | 1012.7 |
| 20260504005058 | 48 | 110 | 0.0 | 0.0 | 0.00 | 0.00 | 0.00 | 71 | 1012.8 |
| 20260504004556 | 48 | 110 | 0.0 | 0.0 | 0.00 | 0.00 | 0.00 | 67 | 1012.8 |
| 20260504004053 | 49 | 110 | 0.0 | 0.0 | 0.00 | 0.00 | 0.00 | 66 | 1012.8 |
| 20260504003549 | 50 | 110 | 0.0 | 0.0 | 0.00 | 0.00 | 0.00 | 66 | 1012.7 |
| 20260504003046 | 51 | 110 | 0.0 | 0.0 | 0.00 | 0.00 | 0.00 | 64 | 1012.7 |
| 20260504002543 | 51 | 110 | 0.0 | 0.0 | 0.00 | 0.00 | 0.00 | 58 | 1012.4 |
| 20260504002041 | 52 | 110 | 0.0 | 0.0 | 0.00 | 0.00 | 0.00 | 58 | 1012.3 |
| 20260504001538 | 53 | 111 | 0.0 | 0.0 | 0.00 | 0.00 | 0.00 | 55 | 1012.2 |
| 20260504001034 | 53 | 110 | 0.0 | 0.0 | 0.00 | 0.00 | 0.00 | 53 | 1012.5 |
| 20260504000531 | 54 | 110 | 0.0 | 0.0 | 0.00 | 0.00 | 0.00 | 49 | 1012.3 |
| 20260504000029 | 54 | 109 | 0.0 | 0.0 | 0.00 | 0.00 | 0.00 | 48 | 1012.2 |
| 20260503235527 | 54 | 111 | 1.0 | 1.0 | 0.00 | 0.00 | 0.00 | 48 | 1012.3 |
| 20260503235023 | 55 | 106 | 0.0 | 0.0 | 0.00 | 0.00 | 0.00 | 51 | 1012.1 |
| 20260503234521 | 55 | 104 | 0.0 | 0.0 | 0.00 | 0.00 | 0.00 | 46 | 1012.1 |
| 20260503234019 | 56 | 87 | 0.0 | 1.0 | 0.00 | 0.00 | 0.00 | 44 | 1012.1 |
| 20260503233515 | 56 | 115 | 1.0 | 1.0 | 0.00 | 0.00 | 0.00 | 45 | 1012.1 |
| 20260503233011 | 57 | 79 | 0.0 | 0.0 | 0.00 | 0.00 | 0.00 | 45 | 1012.2 |
| 20260503232508 | 57 | 56 | 1.0 | 1.0 | 0.00 | 0.00 | 0.00 | 40 | 1012.0 |
| 20260503232006 | 57 | 103 | 0.0 | 0.0 | 0.00 | 0.00 | 0.00 | 43 | 1012.1 |